{"data":{"norad_id":67154,"epoch":"2026-09-20T05:21:30.180672Z","epoch_age_seconds":129983,"freshness":"FRESH","line1":"1 67154U 25301X   26263.22326598  .00000148  00000+0  48452-4 0  9999","line2":"2 67154  51.9003 275.4097 0000487  58.0673 302.0337 14.79932268 42673","mean_motion":14.79932268,"eccentricity":4.87e-5,"inclination_deg":51.9003,"raan_deg":275.4097,"arg_perigee_deg":58.0673,"mean_anomaly_deg":302.0337,"bstar":4.8452e-5,"rev_number":4267,"period_min":97.301750298751,"perigee_km":629.19666614898,"apogee_km":629.87921368813,"semimajor_km":7007.6749399186,"source":"CELESTRAK","updated_at":"2026-09-21T09:00:16.460240Z"}}